Location: Unspecified
(0.0000°N, 0.0000°E)
Time: 19:02:15
(UTC+00:00)

Courier 1B - Pass Details

Date: 22 November 2019
Orbit: 963 x 1209 km, 28.3° (Epoch: 08 December)

Event Time Altitude Azimuth Distance (km) Brightness Sun altitude
Rises 14:55:16 0° 263° (W) 3,684 11.3 39.5°
Reaches altitude 10° 14:58:50 10° 245° (WSW) 2,771 11.2 38.7°
Maximum altitude 15:03:14 18° 203° (SSW) 2,285 10.4 37.8°
Drops below altitude 10° 15:07:47 10° 162° (SSE) 2,884 10.2 36.7°
Sets 15:11:38 0° 144° (SE) 3,893 10.6 35.9°
